Time,TemperatureF,DewpointF,PressureIn,WindDirection,WindDirectionDegrees,WindSpeedMPH,WindSpeedGustMPH,Humidity,HourlyPrecipIn,Conditions,Clouds,dailyrainin,SoftwareType,DateUTC
2013-04-18 00:01:00,62.8,56.9,30.19,ESE,123,3.0,4.0,81,0.00,,CLR,0.00,VWS V13.01,2013-04-18 04:01:00,
2013-04-18 00:02:00,62.8,56.9,30.19,ESE,123,2.0,4.0,81,0.00,,CLR,0.00,VWS V13.01,2013-04-18 04:02:00,
2013-04-18 00:03:00,62.8,56.9,30.19,ESE,123,3.0,4.0,81,0.00,,CLR,0.00,VWS V13.01,2013-04-18 04:03:00,
2013-04-18 00:04:00,62.8,56.9,30.19,ESE,123,2.0,4.0,81,0.00,,CLR,0.00,VWS V13.01,2013-04-18 04:04:00,
2013-04-18 00:09:00,62.7,56.8,30.19,ESE,123,2.0,4.0,81,0.00,,CLR,0.00,VWS V13.01,2013-04-18 04:09:00,
2013-04-18 00:14:00,62.7,56.8,30.19,ESE,118,0.0,2.0,81,0.00,,CLR,0.00,VWS V13.01,2013-04-18 04:14:00,
2013-04-18 00:19:00,62.6,57.0,30.19,ESE,118,0.0,3.0,82,0.00,,CLR,0.00,VWS V13.01,2013-04-18 04:19:00,
2013-04-18 00:24:00,62.5,56.9,30.19,ESE,118,2.0,4.0,82,0.00,,CLR,0.00,VWS V13.01,2013-04-18 04:24:00,
2013-04-18 00:30:00,62.6,57.0,30.18,ESE,118,2.0,4.0,82,0.00,,CLR,0.00,VWS V13.01,2013-04-18 04:30:00,
2013-04-18 00:35:00,62.6,57.0,30.18,ESE,118,3.0,4.0,82,0.00,,CLR,0.00,VWS V13.01,2013-04-18 04:35:00,
2013-04-18 00:40:00,62.6,57.4,30.18,ESE,109,1.0,7.0,83,0.00,,CLR,0.00,VWS V13.01,2013-04-18 04:40:00,
2013-04-18 00:45:00,62.7,57.5,30.18,ESE,103,4.0,4.0,83,0.00,,CLR,0.00,VWS V13.01,2013-04-18 04:45:00,
2013-04-18 00:50:00,62.7,57.5,30.18,ESE,114,3.0,6.0,83,0.00,,CLR,0.00,VWS V13.01,2013-04-18 04:50:00,
2013-04-18 00:55:00,62.6,57.4,30.17,ESE,118,2.0,6.0,83,0.00,,CLR,0.00,VWS V13.01,2013-04-18 04:55:00,
2013-04-18 01:00:00,62.6,57.4,30.18,ESE,116,1.0,4.0,83,0.00,,CLR,0.00,VWS V13.01,2013-04-18 05:00:00,
2013-04-18 01:05:00,62.6,57.4,30.18,ESE,116,0.0,4.0,83,0.00,,CLR,0.00,VWS V13.01,2013-04-18 05:05:00,
2013-04-18 01:10:00,62.5,57.6,30.18,ESE,115,2.0,4.0,84,0.00,,CLR,0.00,VWS V13.01,2013-04-18 05:10:00,
2013-04-18 01:15:00,62.5,57.6,30.18,ESE,115,2.0,3.0,84,0.00,,CLR,0.00,VWS V13.01,2013-04-18 05:15:00,
2013-04-18 01:21:00,62.5,57.6,30.18,ESE,115,2.0,4.0,84,0.00,,CLR,0.00,VWS V13.01,2013-04-18 05:21:00,
2013-04-18 01:26:00,62.5,57.6,30.18,SSE,151,3.0,6.0,84,0.00,,CLR,0.00,VWS V13.01,2013-04-18 05:26:00,
2013-04-18 01:31:00,62.5,57.6,30.18,SSE,151,3.0,4.0,84,0.00,,CLR,0.00,VWS V13.01,2013-04-18 05:31:00,
2013-04-18 01:36:00,62.5,57.6,30.18,SE,145,1.0,5.0,84,0.00,,CLR,0.00,VWS V13.01,2013-04-18 05:36:00,
2013-04-18 01:41:00,62.5,57.6,30.18,SE,144,0.0,5.0,84,0.00,,CLR,0.00,VWS V13.01,2013-04-18 05:41:00,
2013-04-18 01:46:00,62.5,57.9,30.18,SE,144,1.0,3.0,85,0.00,,CLR,0.00,VWS V13.01,2013-04-18 05:46:00,
2013-04-18 01:51:00,62.3,57.7,30.18,SE,141,1.0,3.0,85,0.00,,CLR,0.00,VWS V13.01,2013-04-18 05:51:00,
2013-04-18 01:56:00,62.2,57.6,30.18,SE,141,0.0,3.0,85,0.00,,CLR,0.00,VWS V13.01,2013-04-18 05:56:00,
2013-04-18 02:02:00,62.0,57.5,30.18,SE,141,1.0,2.0,85,0.00,,CLR,0.00,VWS V13.01,2013-04-18 06:02:00,
2013-04-18 02:07:00,62.0,57.8,30.18,SE,141,2.0,2.0,86,0.00,,CLR,0.00,VWS V13.01,2013-04-18 06:07:00,
2013-04-18 02:12:00,61.9,57.7,30.17,SE,141,2.0,2.0,86,0.00,,CLR,0.00,VWS V13.01,2013-04-18 06:12:00,
2013-04-18 02:17:00,61.8,57.6,30.17,SE,141,1.0,3.0,86,0.00,,CLR,0.00,VWS V13.01,2013-04-18 06:17:00,
2013-04-18 02:22:00,61.8,57.6,30.17,SE,141,2.0,3.0,86,0.00,,CLR,0.00,VWS V13.01,2013-04-18 06:22:00,
2013-04-18 02:27:00,61.8,57.6,30.17,SE,141,3.0,3.0,86,0.00,,CLR,0.00,VWS V13.01,2013-04-18 06:27:00,
2013-04-18 02:32:00,61.8,57.6,30.17,SE,141,3.0,4.0,86,0.00,,CLR,0.00,VWS V13.01,2013-04-18 06:32:00,
2013-04-18 02:37:00,61.8,57.6,30.16,SE,141,3.0,4.0,86,0.00,,CLR,0.00,VWS V13.01,2013-04-18 06:37:00,
2013-04-18 02:42:00,61.7,57.5,30.16,SE,141,3.0,4.0,86,0.00,,CLR,0.00,VWS V13.01,2013-04-18 06:42:00,
2013-04-18 02:47:00,61.7,57.5,30.16,SE,141,4.0,4.0,86,0.00,,CLR,0.00,VWS V13.01,2013-04-18 06:47:00,
2013-04-18 02:52:00,61.7,57.5,30.16,SE,138,3.0,4.0,86,0.00,,CLR,0.00,VWS V13.01,2013-04-18 06:52:00,
2013-04-18 02:58:00,61.6,57.4,30.15,SE,138,2.0,4.0,86,0.00,,CLR,0.00,VWS V13.01,2013-04-18 06:58:00,
2013-04-18 03:03:00,61.6,57.4,30.15,SE,138,2.0,4.0,86,0.00,,CLR,0.00,VWS V13.01,2013-04-18 07:03:00,
2013-04-18 03:08:00,61.6,57.7,30.15,SE,138,1.0,4.0,87,0.00,,CLR,0.00,VWS V13.01,2013-04-18 07:08:00,
2013-04-18 03:13:00,61.5,57.6,30.15,SE,138,1.0,2.0,87,0.00,,CLR,0.00,VWS V13.01,2013-04-18 07:13:00,
2013-04-18 03:18:00,61.4,57.5,30.15,SE,138,1.0,2.0,87,0.00,,CLR,0.00,VWS V13.01,2013-04-18 07:18:00,
2013-04-18 03:23:00,61.3,57.4,30.15,SE,138,0.0,2.0,87,0.00,,CLR,0.00,VWS V13.01,2013-04-18 07:23:00,
2013-04-18 03:28:00,61.2,57.6,30.15,SE,138,0.0,0.0,88,0.00,,CLR,0.00,VWS V13.01,2013-04-18 07:28:00,
2013-04-18 03:33:00,61.2,57.6,30.15,SE,138,1.0,2.0,88,0.00,,CLR,0.00,VWS V13.01,2013-04-18 07:33:00,
2013-04-18 03:38:00,61.2,57.6,30.15,SE,138,1.0,3.0,88,0.00,,CLR,0.00,VWS V13.01,2013-04-18 07:38:00,
2013-04-18 03:43:00,61.1,57.5,30.15,SE,138,3.0,3.0,88,0.00,,CLR,0.00,VWS V13.01,2013-04-18 07:43:00,
2013-04-18 03:48:00,61.2,57.6,30.15,SE,138,2.0,5.0,88,0.00,,CLR,0.00,VWS V13.01,2013-04-18 07:48:00,
2013-04-18 03:53:00,61.3,57.7,30.15,SE,146,2.0,5.0,88,0.00,,CLR,0.00,VWS V13.01,2013-04-18 07:53:00,
2013-04-18 03:59:00,61.4,57.8,30.15,SE,145,2.0,4.0,88,0.00,,CLR,0.00,VWS V13.01,2013-04-18 07:59:00,
2013-04-18 04:04:00,61.4,57.8,30.15,SE,132,3.0,7.0,88,0.00,,CLR,0.00,VWS V13.01,2013-04-18 08:04:00,
2013-04-18 04:09:00,61.4,57.8,30.15,SE,143,1.0,7.0,88,0.00,,CLR,0.00,VWS V13.01,2013-04-18 08:09:00,
2013-04-18 04:14:00,61.3,58.0,30.14,SE,135,2.0,3.0,89,0.00,,CLR,0.00,VWS V13.01,2013-04-18 08:14:00,
2013-04-18 04:19:00,61.3,58.0,30.14,SE,132,2.0,4.0,89,0.00,,CLR,0.00,VWS V13.01,2013-04-18 08:19:00,
2013-04-18 04:24:00,61.1,57.8,30.14,SE,132,2.0,4.0,89,0.00,,CLR,0.00,VWS V13.01,2013-04-18 08:24:00,
2013-04-18 04:29:00,60.9,57.6,30.14,SE,132,2.0,4.0,89,0.00,,CLR,0.00,VWS V13.01,2013-04-18 08:29:00,
2013-04-18 04:34:00,60.9,57.6,30.14,SE,132,3.0,5.0,89,0.00,,CLR,0.00,VWS V13.01,2013-04-18 08:34:00,
2013-04-18 04:39:00,60.8,57.5,30.14,SE,132,1.0,5.0,89,0.00,,CLR,0.00,VWS V13.01,2013-04-18 08:39:00,
2013-04-18 04:44:00,60.8,57.5,30.13,SE,132,2.0,4.0,89,0.00,,CLR,0.00,VWS V13.01,2013-04-18 08:44:00,
2013-04-18 04:49:00,60.7,57.8,30.13,SE,127,3.0,4.0,90,0.00,,CLR,0.00,VWS V13.01,2013-04-18 08:49:00,
2013-04-18 04:55:00,60.7,57.8,30.13,SE,127,2.0,4.0,90,0.00,,CLR,0.00,VWS V13.01,2013-04-18 08:55:00,
2013-04-18 05:00:00,60.7,57.8,30.13,SE,127,2.0,4.0,90,0.00,,CLR,0.00,VWS V13.01,2013-04-18 09:00:00,
2013-04-18 05:05:00,60.7,57.8,30.13,East,100,2.0,6.0,90,0.00,,CLR,0.00,VWS V13.01,2013-04-18 09:05:00,
2013-04-18 05:10:00,60.6,57.7,30.13,East,100,3.0,6.0,90,0.00,,CLR,0.00,VWS V13.01,2013-04-18 09:10:00,
2013-04-18 05:15:00,60.5,57.6,30.13,East,100,0.0,3.0,90,0.00,,CLR,0.00,VWS V13.01,2013-04-18 09:15:00,
2013-04-18 05:20:00,60.5,57.6,30.13,East,100,2.0,3.0,90,0.00,,CLR,0.00,VWS V13.01,2013-04-18 09:20:00,
2013-04-18 05:26:00,60.5,57.6,30.13,East,100,2.0,3.0,90,0.00,,CLR,0.00,VWS V13.01,2013-04-18 09:26:00,
2013-04-18 05:31:00,60.4,57.5,30.13,East,100,2.0,4.0,90,0.00,,CLR,0.00,VWS V13.01,2013-04-18 09:31:00,
2013-04-18 05:36:00,60.4,57.5,30.13,East,100,0.0,4.0,90,0.00,,CLR,0.00,VWS V13.01,2013-04-18 09:36:00,
2013-04-18 05:41:00,60.3,57.7,30.13,East,100,1.0,4.0,91,0.00,,CLR,0.00,VWS V13.01,2013-04-18 09:41:00,
2013-04-18 05:46:00,60.3,57.7,30.13,East,100,1.0,3.0,91,0.00,,CLR,0.00,VWS V13.01,2013-04-18 09:46:00,
2013-04-18 05:51:00,60.2,57.6,30.13,East,97,1.0,3.0,91,0.00,,CLR,0.00,VWS V13.01,2013-04-18 09:51:00,
2013-04-18 05:56:00,60.2,57.6,30.13,East,101,0.0,4.0,91,0.00,,CLR,0.00,VWS V13.01,2013-04-18 09:56:00,
2013-04-18 06:01:00,60.1,57.5,30.12,East,101,1.0,3.0,91,0.00,,CLR,0.00,VWS V13.01,2013-04-18 10:01:00,
2013-04-18 06:06:00,60.1,57.5,30.12,East,101,3.0,4.0,91,0.00,,CLR,0.00,VWS V13.01,2013-04-18 10:06:00,
2013-04-18 06:12:00,60.0,57.4,30.13,ESE,102,2.0,2.0,91,0.00,,CLR,0.00,VWS V13.01,2013-04-18 10:12:00,
2013-04-18 06:17:00,60.0,57.4,30.13,ESE,102,0.0,3.0,91,0.00,,CLR,0.00,VWS V13.01,2013-04-18 10:17:00,
2013-04-18 06:22:00,60.0,57.4,30.13,East,99,0.0,4.0,91,0.00,,CLR,0.00,VWS V13.01,2013-04-18 10:22:00,
2013-04-18 06:27:00,60.0,57.4,30.13,East,99,0.0,1.0,91,0.00,,CLR,0.00,VWS V13.01,2013-04-18 10:27:00,
2013-04-18 06:32:00,60.0,57.7,30.13,East,84,0.0,7.0,92,0.00,,CLR,0.00,VWS V13.01,2013-04-18 10:32:00,
2013-04-18 06:37:00,60.0,57.7,30.13,SE,127,3.0,7.0,92,0.00,,CLR,0.00,VWS V13.01,2013-04-18 10:37:00,
2013-04-18 06:42:00,60.1,57.8,30.13,SE,127,0.0,2.0,92,0.00,,CLR,0.00,VWS V13.01,2013-04-18 10:42:00,
2013-04-18 06:47:00,60.1,57.8,30.14,SE,136,4.0,9.0,92,0.00,,CLR,0.00,VWS V13.01,2013-04-18 10:47:00,
2013-04-18 06:52:00,60.0,57.7,30.14,SE,134,1.0,9.0,92,0.00,,CLR,0.00,VWS V13.01,2013-04-18 10:52:00,
2013-04-18 06:57:00,60.0,57.7,30.15,SSE,150,2.0,3.0,92,0.00,,CLR,0.00,VWS V13.01,2013-04-18 10:57:00,
2013-04-18 07:02:00,60.0,57.7,30.14,SE,135,0.0,6.0,92,0.00,,CLR,0.00,VWS V13.01,2013-04-18 11:02:00,
2013-04-18 07:07:00,59.9,57.6,30.15,SE,145,0.0,6.0,92,0.00,,CLR,0.00,VWS V13.01,2013-04-18 11:07:00,
2013-04-18 07:13:00,59.9,57.6,30.15,ESE,116,3.0,9.0,92,0.00,,CLR,0.00,VWS V13.01,2013-04-18 11:13:00,
2013-04-18 07:18:00,59.9,57.6,30.15,ESE,116,0.0,9.0,92,0.00,,CLR,0.00,VWS V13.01,2013-04-18 11:18:00,
2013-04-18 07:23:00,59.9,57.6,30.15,ESE,116,0.0,9.0,92,0.00,,CLR,0.00,VWS V13.01,2013-04-18 11:23:00,
2013-04-18 07:28:00,59.9,57.6,30.16,ESE,118,2.0,2.0,92,0.00,,CLR,0.00,VWS V13.01,2013-04-18 11:28:00,
2013-04-18 07:33:00,59.9,57.9,30.16,ESE,118,0.0,2.0,93,0.00,,CLR,0.00,VWS V13.01,2013-04-18 11:33:00,
2013-04-18 07:38:00,59.9,57.9,30.16,ESE,116,1.0,4.0,93,0.00,,CLR,0.00,VWS V13.01,2013-04-18 11:38:00,
2013-04-18 07:43:00,59.8,57.8,30.16,ESE,112,0.0,2.0,93,0.00,,CLR,0.00,VWS V13.01,2013-04-18 11:43:00,
2013-04-18 07:48:00,59.8,57.8,30.16,ESE,112,2.0,3.0,93,0.00,,CLR,0.00,VWS V13.01,2013-04-18 11:48:00,
2013-04-18 07:53:00,59.8,57.8,30.16,ESE,118,3.0,5.0,93,0.00,,CLR,0.00,VWS V13.01,2013-04-18 11:53:00,
2013-04-18 07:58:00,59.8,57.8,30.15,ESE,111,3.0,3.0,93,0.00,,CLR,0.00,VWS V13.01,2013-04-18 11:58:00,
2013-04-18 08:03:00,59.8,57.8,30.16,East,88,0.0,4.0,93,0.00,,CLR,0.00,VWS V13.01,2013-04-18 12:03:00,
2013-04-18 08:08:00,59.8,57.8,30.15,East,88,0.0,4.0,93,0.00,,CLR,0.00,VWS V13.01,2013-04-18 12:08:00,
2013-04-18 08:13:00,59.8,57.8,30.16,East,90,2.0,3.0,93,0.00,,CLR,0.00,VWS V13.01,2013-04-18 12:13:00,
2013-04-18 08:19:00,59.9,57.9,30.15,East,90,2.0,4.0,93,0.00,,CLR,0.00,VWS V13.01,2013-04-18 12:19:00,
2013-04-18 08:24:00,59.9,57.9,30.16,East,90,0.0,4.0,93,0.00,,CLR,0.00,VWS V13.01,2013-04-18 12:24:00,
2013-04-18 08:29:00,60.0,58.0,30.16,East,90,0.0,3.0,93,0.00,,CLR,0.00,VWS V13.01,2013-04-18 12:29:00,
2013-04-18 08:34:00,60.0,58.0,30.16,East,90,0.0,3.0,93,0.00,,CLR,0.00,VWS V13.01,2013-04-18 12:34:00,
2013-04-18 08:39:00,60.0,58.0,30.17,ESE,112,0.0,5.0,93,0.00,,CLR,0.00,VWS V13.01,2013-04-18 12:39:00,
2013-04-18 08:44:00,60.0,58.0,30.16,ESE,112,0.0,4.0,93,0.00,,CLR,0.00,VWS V13.01,2013-04-18 12:44:00,
2013-04-18 08:49:00,60.0,58.3,30.16,ESE,114,2.0,4.0,94,0.00,,CLR,0.00,VWS V13.01,2013-04-18 12:49:00,
2013-04-18 08:54:00,60.0,58.3,30.16,SSE,150,0.0,5.0,94,0.00,,CLR,0.00,VWS V13.01,2013-04-18 12:54:00,
2013-04-18 08:59:00,60.0,58.3,30.17,South,187,2.0,7.0,94,0.00,,CLR,0.00,VWS V13.01,2013-04-18 12:59:00,
2013-04-18 09:05:00,59.9,58.2,30.17,South,187,0.0,7.0,94,0.00,,CLR,0.00,VWS V13.01,2013-04-18 13:05:00,
2013-04-18 09:10:00,59.9,58.2,30.17,South,187,0.0,7.0,94,0.00,,CLR,0.00,VWS V13.01,2013-04-18 13:10:00,
2013-04-18 09:15:00,60.0,58.3,30.17,SE,134,5.0,6.0,94,0.00,,CLR,0.00,VWS V13.01,2013-04-18 13:15:00,
2013-04-18 09:20:00,60.0,58.3,30.17,SE,145,0.0,6.0,94,0.00,,CLR,0.00,VWS V13.01,2013-04-18 13:20:00,
2013-04-18 09:25:00,60.1,58.1,30.16,South,172,3.0,7.0,93,0.00,,CLR,0.00,VWS V13.01,2013-04-18 13:25:00,
2013-04-18 09:30:00,60.2,58.2,30.16,South,181,6.0,6.0,93,0.00,,CLR,0.00,VWS V13.01,2013-04-18 13:30:00,
2013-04-18 09:35:00,60.3,58.3,30.16,SE,138,2.0,8.0,93,0.00,,CLR,0.00,VWS V13.01,2013-04-18 13:35:00,
2013-04-18 09:40:00,60.6,58.6,30.16,SE,138,0.0,8.0,93,0.00,,CLR,0.00,VWS V13.01,2013-04-18 13:40:00,
2013-04-18 09:45:00,61.0,58.7,30.16,SE,139,0.0,2.0,92,0.00,,CLR,0.00,VWS V13.01,2013-04-18 13:45:00,
2013-04-18 09:50:00,61.3,59.0,30.16,SE,139,0.0,2.0,92,0.00,,CLR,0.00,VWS V13.01,2013-04-18 13:50:00,
2013-04-18 09:55:00,61.4,59.1,30.16,SE,139,0.0,3.0,92,0.00,,CLR,0.00,VWS V13.01,2013-04-18 13:55:00,
2013-04-18 10:00:00,61.3,58.7,30.16,SE,139,3.0,5.0,91,0.00,,CLR,0.00,VWS V13.01,2013-04-18 14:00:00,
2013-04-18 10:06:00,61.3,58.7,30.15,SSE,156,2.0,7.0,91,0.00,,CLR,0.00,VWS V13.01,2013-04-18 14:06:00,
2013-04-18 10:11:00,61.2,58.9,30.15,SSE,156,0.0,9.0,92,0.00,,CLR,0.00,VWS V13.01,2013-04-18 14:11:00,
2013-04-18 10:16:00,61.3,59.0,30.15,SSE,156,3.0,3.0,92,0.00,,CLR,0.00,VWS V13.01,2013-04-18 14:16:00,
2013-04-18 10:21:00,61.5,59.2,30.15,SSE,156,0.0,3.0,92,0.00,,CLR,0.00,VWS V13.01,2013-04-18 14:21:00,
2013-04-18 10:26:00,61.7,59.4,30.15,SSE,156,0.0,3.0,92,0.00,,CLR,0.00,VWS V13.01,2013-04-18 14:26:00,
2013-04-18 10:31:00,61.8,59.2,30.15,SSE,156,0.0,4.0,91,0.00,,CLR,0.00,VWS V13.01,2013-04-18 14:31:00,
2013-04-18 10:37:00,61.9,59.2,30.15,SSE,156,0.0,4.0,91,0.00,,CLR,0.00,VWS V13.01,2013-04-18 14:37:00,
2013-04-18 10:42:00,62.2,59.5,30.15,SSE,156,0.0,0.0,91,0.00,,CLR,0.00,VWS V13.01,2013-04-18 14:42:00,
2013-04-18 10:47:00,62.5,59.8,30.15,SSE,156,0.0,4.0,91,0.00,,CLR,0.00,VWS V13.01,2013-04-18 14:47:00,
2013-04-18 10:52:00,62.9,59.9,30.15,SSE,147,3.0,5.0,90,0.00,,CLR,0.00,VWS V13.01,2013-04-18 14:52:00,
2013-04-18 10:57:00,63.4,60.4,30.15,South,170,4.0,6.0,90,0.00,,CLR,0.00,VWS V13.01,2013-04-18 14:57:00,
2013-04-18 11:03:00,64.0,60.7,30.15,SSE,166,2.0,6.0,89,0.00,,CLR,0.00,VWS V13.01,2013-04-18 15:03:00,
2013-04-18 11:07:00,64.3,60.7,30.15,SSE,166,1.0,6.0,88,0.00,,CLR,0.00,VWS V13.01,2013-04-18 15:07:00,
2013-04-18 11:13:00,64.3,60.7,30.15,SE,140,6.0,6.0,88,0.00,,CLR,0.00,VWS V13.01,2013-04-18 15:13:00,
2013-04-18 11:18:00,64.6,61.0,30.15,ESE,105,2.0,8.0,88,0.00,,CLR,0.00,VWS V13.01,2013-04-18 15:18:00,
2013-04-18 11:23:00,65.1,61.1,30.15,ESE,106,3.0,8.0,87,0.00,,CLR,0.00,VWS V13.01,2013-04-18 15:23:00,
2013-04-18 11:28:00,65.6,61.3,30.14,SE,139,0.0,1.0,86,0.00,,CLR,0.00,VWS V13.01,2013-04-18 15:28:00,
2013-04-18 11:33:00,66.2,61.6,30.14,SE,137,4.0,4.0,85,0.00,,CLR,0.00,VWS V13.01,2013-04-18 15:33:00,
2013-04-18 11:38:00,66.3,61.3,30.14,SSW,196,5.0,11.0,84,0.00,,CLR,0.00,VWS V13.01,2013-04-18 15:38:00,
2013-04-18 11:43:00,66.3,61.7,30.13,South,170,4.0,6.0,85,0.00,,CLR,0.00,VWS V13.01,2013-04-18 15:43:00,
2013-04-18 11:48:00,66.5,61.5,30.13,South,184,4.0,10.0,84,0.00,,CLR,0.00,VWS V13.01,2013-04-18 15:48:00,
2013-04-18 11:53:00,67.2,62.2,30.12,SE,133,4.0,10.0,84,0.00,,CLR,0.00,VWS V13.01,2013-04-18 15:53:00,
2013-04-18 11:58:00,67.9,62.2,30.12,ESE,112,1.0,5.0,82,0.00,,CLR,0.00,VWS V13.01,2013-04-18 15:58:00,
2013-04-18 12:03:00,68.1,62.1,30.12,SE,138,0.0,6.0,81,0.00,,CLR,0.00,VWS V13.01,2013-04-18 16:03:00,
2013-04-18 12:08:00,67.9,61.9,30.12,ESE,110,5.0,6.0,81,0.00,,CLR,0.00,VWS V13.01,2013-04-18 16:08:00,
2013-04-18 12:13:00,67.4,61.7,30.11,ESE,110,2.0,6.0,82,0.00,,CLR,0.00,VWS V13.01,2013-04-18 16:13:00,
2013-04-18 12:18:00,67.5,61.8,30.11,SSE,147,5.0,7.0,82,0.00,,CLR,0.00,VWS V13.01,2013-04-18 16:18:00,
2013-04-18 12:24:00,67.5,61.8,30.11,SSW,198,5.0,8.0,82,0.00,,CLR,0.00,VWS V13.01,2013-04-18 16:24:00,
2013-04-18 12:29:00,67.7,62.0,30.11,SSW,192,5.0,9.0,82,0.00,,CLR,0.00,VWS V13.01,2013-04-18 16:29:00,
2013-04-18 12:34:00,67.5,61.8,30.11,SSW,205,2.0,9.0,82,0.00,,CLR,0.00,VWS V13.01,2013-04-18 16:34:00,
2013-04-18 12:39:00,67.7,62.0,30.10,SSE,161,1.0,9.0,82,0.00,,CLR,0.00,VWS V13.01,2013-04-18 16:39:00,
2013-04-18 12:44:00,68.6,62.5,30.10,SSE,149,5.0,7.0,81,0.00,,CLR,0.00,VWS V13.01,2013-04-18 16:44:00,
2013-04-18 12:49:00,68.9,62.5,30.10,SE,145,1.0,7.0,80,0.00,,CLR,0.00,VWS V13.01,2013-04-18 16:49:00,
2013-04-18 12:54:00,69.0,62.9,30.10,SSE,166,6.0,8.0,81,0.00,,CLR,0.00,VWS V13.01,2013-04-18 16:54:00,
2013-04-18 12:59:00,69.1,62.7,30.10,SE,126,2.0,9.0,80,0.00,,CLR,0.00,VWS V13.01,2013-04-18 16:59:00,
2013-04-18 13:05:00,68.9,62.5,30.09,SSE,148,4.0,9.0,80,0.00,,CLR,0.00,VWS V13.01,2013-04-18 17:05:00,
2013-04-18 13:10:00,68.9,62.8,30.09,SE,144,4.0,9.0,81,0.00,,CLR,0.00,VWS V13.01,2013-04-18 17:10:00,
2013-04-18 13:15:00,69.1,62.7,30.09,SE,139,2.0,11.0,80,0.00,,CLR,0.00,VWS V13.01,2013-04-18 17:15:00,
2013-04-18 13:20:00,68.9,62.8,30.08,South,171,1.0,11.0,81,0.00,,CLR,0.00,VWS V13.01,2013-04-18 17:20:00,
2013-04-18 13:25:00,69.3,63.2,30.08,South,172,0.0,11.0,81,0.00,,CLR,0.00,VWS V13.01,2013-04-18 17:25:00,
2013-04-18 13:30:00,70.0,63.5,30.08,South,172,2.0,4.0,80,0.00,,CLR,0.00,VWS V13.01,2013-04-18 17:30:00,
2013-04-18 13:35:00,70.5,63.7,30.08,South,171,0.0,4.0,79,0.00,,CLR,0.00,VWS V13.01,2013-04-18 17:35:00,
2013-04-18 13:40:00,70.6,63.8,30.07,SSE,166,9.0,13.0,79,0.00,,CLR,0.00,VWS V13.01,2013-04-18 17:40:00,
2013-04-18 13:45:00,71.0,64.2,30.07,SSW,199,5.0,7.0,79,0.00,,CLR,0.00,VWS V13.01,2013-04-18 17:45:00,
2013-04-18 13:50:00,71.9,64.7,30.07,SSW,197,1.0,10.0,78,0.00,,CLR,0.00,VWS V13.01,2013-04-18 17:50:00,
2013-04-18 13:56:00,73.1,65.1,30.06,South,177,3.0,10.0,76,0.00,,CLR,0.00,VWS V13.01,2013-04-18 17:56:00,
2013-04-18 14:01:00,73.5,64.7,30.06,SE,140,7.0,12.0,74,0.00,,CLR,0.00,VWS V13.01,2013-04-18 18:01:00,
2013-04-18 14:07:00,73.4,64.6,30.06,SE,128,5.0,12.0,74,0.00,,CLR,0.00,VWS V13.01,2013-04-18 18:07:00,
2013-04-18 14:12:00,72.9,64.5,30.06,South,174,5.0,5.0,75,0.00,,CLR,0.00,VWS V13.01,2013-04-18 18:12:00,
2013-04-18 14:17:00,72.8,64.4,30.06,SE,138,4.0,10.0,75,0.00,,CLR,0.00,VWS V13.01,2013-04-18 18:17:00,
2013-04-18 14:22:00,72.9,64.5,30.05,SSW,193,7.0,16.0,75,0.00,,CLR,0.00,VWS V13.01,2013-04-18 18:22:00,
2013-04-18 14:27:00,72.9,64.9,30.05,ESE,116,5.0,5.0,76,0.00,,CLR,0.00,VWS V13.01,2013-04-18 18:27:00,
2013-04-18 14:32:00,73.7,64.9,30.05,SE,130,7.0,9.0,74,0.00,,CLR,0.00,VWS V13.01,2013-04-18 18:32:00,
2013-04-18 14:37:00,73.0,64.2,30.05,ESE,105,3.0,9.0,74,0.00,,CLR,0.00,VWS V13.01,2013-04-18 18:37:00,
2013-04-18 14:43:00,72.4,64.4,30.04,SE,135,1.0,5.0,76,0.00,,CLR,0.00,VWS V13.01,2013-04-18 18:43:00,
2013-04-18 14:48:00,72.6,65.0,30.03,South,178,3.0,12.0,77,0.00,,CLR,0.00,VWS V13.01,2013-04-18 18:48:00,
2013-04-18 14:53:00,74.0,65.6,30.03,South,187,2.0,12.0,75,0.00,,CLR,0.00,VWS V13.01,2013-04-18 18:53:00,
2013-04-18 14:58:00,75.6,65.9,30.03,SE,139,4.0,11.0,72,0.00,,CLR,0.00,VWS V13.01,2013-04-18 18:58:00,
2013-04-18 15:03:00,76.1,66.0,30.03,SSE,156,2.0,11.0,71,0.00,,CLR,0.00,VWS V13.01,2013-04-18 19:03:00,
2013-04-18 15:08:00,76.4,66.3,30.03,SE,144,5.0,11.0,71,0.00,,CLR,0.00,VWS V13.01,2013-04-18 19:08:00,
2013-04-18 15:13:00,74.8,64.8,30.02,SW,214,8.0,17.0,71,0.00,,CLR,0.00,VWS V13.01,2013-04-18 19:13:00,
2013-04-18 15:18:00,73.9,65.1,30.03,South,180,3.0,17.0,74,0.00,,CLR,0.00,VWS V13.01,2013-04-18 19:18:00,
2013-04-18 15:23:00,73.0,64.6,30.03,SSE,149,5.0,17.0,75,0.00,,CLR,0.00,VWS V13.01,2013-04-18 19:23:00,
2013-04-18 15:28:00,73.1,65.1,30.02,SSW,208,3.0,4.0,76,0.00,,CLR,0.00,VWS V13.01,2013-04-18 19:28:00,
2013-04-18 15:34:00,73.8,65.4,30.02,South,183,3.0,5.0,75,0.00,,CLR,0.00,VWS V13.01,2013-04-18 19:34:00,
2013-04-18 15:39:00,73.9,65.1,30.02,South,190,5.0,11.0,74,0.00,,CLR,0.00,VWS V13.01,2013-04-18 19:39:00,
2013-04-18 15:44:00,74.3,64.7,30.01,SE,132,6.0,21.0,72,0.00,,CLR,0.00,VWS V13.01,2013-04-18 19:44:00,
2013-04-18 15:49:00,74.6,64.6,30.01,SSW,205,5.0,21.0,71,0.00,,CLR,0.00,VWS V13.01,2013-04-18 19:49:00,
2013-04-18 15:54:00,74.0,64.0,30.01,SW,217,10.0,21.0,71,0.00,,CLR,0.00,VWS V13.01,2013-04-18 19:54:00,
2013-04-18 15:59:00,74.0,64.0,30.01,SSW,196,4.0,11.0,71,0.00,,CLR,0.00,VWS V13.01,2013-04-18 19:59:00,
2013-04-18 16:04:00,74.1,63.7,30.01,SSW,194,16.0,25.0,70,0.00,,CLR,0.00,VWS V13.01,2013-04-18 20:04:00,
2013-04-18 16:09:00,75.0,64.2,30.00,South,189,5.0,25.0,69,0.00,,CLR,0.00,VWS V13.01,2013-04-18 20:09:00,
2013-04-18 16:14:00,75.4,64.1,30.00,SSW,194,2.0,19.0,68,0.00,,CLR,0.00,VWS V13.01,2013-04-18 20:14:00,
2013-04-18 16:20:00,76.2,64.4,30.00,SSW,205,15.0,19.0,67,0.00,,CLR,0.00,VWS V13.01,2013-04-18 20:20:00,
2013-04-18 16:25:00,75.5,63.8,30.00,South,186,11.0,24.0,67,0.00,,CLR,0.00,VWS V13.01,2013-04-18 20:25:00,
2013-04-18 16:30:00,75.4,63.3,30.00,SSW,211,13.0,27.0,66,0.00,,CLR,0.00,VWS V13.01,2013-04-18 20:30:00,
2013-04-18 16:35:00,74.9,62.8,30.00,South,170,14.0,27.0,66,0.00,,CLR,0.00,VWS V13.01,2013-04-18 20:35:00,
2013-04-18 16:40:00,74.8,63.1,30.00,SSW,207,11.0,27.0,67,0.00,,CLR,0.00,VWS V13.01,2013-04-18 20:40:00,
2013-04-18 16:45:00,74.9,63.2,30.00,South,178,11.0,23.0,67,0.00,,CLR,0.00,VWS V13.01,2013-04-18 20:45:00,
2013-04-18 16:50:00,75.4,63.3,30.00,SSW,199,12.0,23.0,66,0.00,,CLR,0.00,VWS V13.01,2013-04-18 20:50:00,
2013-04-18 16:55:00,75.1,63.4,30.00,SSE,166,6.0,23.0,67,0.00,,CLR,0.00,VWS V13.01,2013-04-18 20:55:00,
2013-04-18 17:00:00,74.4,62.7,30.00,SW,228,11.0,22.0,67,0.00,,CLR,0.00,VWS V13.01,2013-04-18 21:00:00,
2013-04-18 17:06:00,74.1,62.9,30.00,South,171,10.0,22.0,68,0.00,,CLR,0.00,VWS V13.01,2013-04-18 21:06:00,
2013-04-18 17:11:00,73.9,62.7,30.00,WSW,244,13.0,22.0,68,0.00,,CLR,0.00,VWS V13.01,2013-04-18 21:11:00,
2013-04-18 17:16:00,73.7,62.5,30.00,South,178,4.0,21.0,68,0.00,,CLR,0.00,VWS V13.01,2013-04-18 21:16:00,
2013-04-18 17:21:00,73.7,62.5,30.00,South,170,6.0,21.0,68,0.00,,CLR,0.00,VWS V13.01,2013-04-18 21:21:00,
2013-04-18 17:26:00,73.7,62.5,30.00,SSW,201,7.0,21.0,68,0.00,,CLR,0.00,VWS V13.01,2013-04-18 21:26:00,
2013-04-18 17:31:00,73.7,62.5,30.00,SSE,156,13.0,17.0,68,0.00,,CLR,0.00,VWS V13.01,2013-04-18 21:31:00,
2013-04-18 17:36:00,73.7,62.9,30.00,South,184,4.0,18.0,69,0.00,,CLR,0.00,VWS V13.01,2013-04-18 21:36:00,
2013-04-18 17:41:00,73.8,62.6,29.99,SSE,156,12.0,12.0,68,0.00,,CLR,0.00,VWS V13.01,2013-04-18 21:41:00,
2013-04-18 17:47:00,74.0,62.8,29.99,SSE,166,4.0,12.0,68,0.00,,CLR,0.00,VWS V13.01,2013-04-18 21:47:00,
2013-04-18 17:52:00,74.1,62.9,29.99,ESE,120,7.0,14.0,68,0.00,,CLR,0.00,VWS V13.01,2013-04-18 21:52:00,
2013-04-18 17:57:00,74.1,62.9,29.99,SSW,212,9.0,14.0,68,0.00,,CLR,0.00,VWS V13.01,2013-04-18 21:57:00,
2013-04-18 18:02:00,74.1,62.9,29.99,South,184,7.0,14.0,68,0.00,,CLR,0.00,VWS V13.01,2013-04-18 22:02:00,
2013-04-18 18:07:00,74.1,62.9,29.99,SSW,205,6.0,14.0,68,0.00,,CLR,0.00,VWS V13.01,2013-04-18 22:07:00,
2013-04-18 18:12:00,74.1,62.5,29.99,SSW,212,5.0,11.0,67,0.00,,CLR,0.00,VWS V13.01,2013-04-18 22:12:00,
2013-04-18 18:18:00,74.1,62.5,29.98,SSW,194,12.0,13.0,67,0.00,,CLR,0.00,VWS V13.01,2013-04-18 22:18:00,
2013-04-18 18:23:00,74.1,62.9,29.98,SW,222,6.0,13.0,68,0.00,,CLR,0.00,VWS V13.01,2013-04-18 22:23:00,
2013-04-18 18:28:00,74.1,62.9,29.98,SW,217,4.0,6.0,68,0.00,,CLR,0.00,VWS V13.01,2013-04-18 22:28:00,
2013-04-18 18:33:00,74.4,62.7,29.98,SSW,210,10.0,10.0,67,0.00,,CLR,0.00,VWS V13.01,2013-04-18 22:33:00,
2013-04-18 18:38:00,74.7,63.0,29.98,South,173,3.0,10.0,67,0.00,,CLR,0.00,VWS V13.01,2013-04-18 22:38:00,
2013-04-18 18:43:00,75.0,63.3,29.98,SSW,207,4.0,5.0,67,0.00,,CLR,0.00,VWS V13.01,2013-04-18 22:43:00,
2013-04-18 18:48:00,75.1,63.0,29.98,SE,143,0.0,11.0,66,0.00,,CLR,0.00,VWS V13.01,2013-04-18 22:48:00,
2013-04-18 18:53:00,75.2,63.5,29.97,South,173,3.0,11.0,67,0.00,,CLR,0.00,VWS V13.01,2013-04-18 22:53:00,
2013-04-18 18:59:00,75.0,62.9,29.98,SW,220,7.0,7.0,66,0.00,,CLR,0.00,VWS V13.01,2013-04-18 22:59:00,
2013-04-18 19:04:00,74.8,62.7,29.97,SSW,197,4.0,12.0,66,0.00,,CLR,0.00,VWS V13.01,2013-04-18 23:04:00,
2013-04-18 19:09:00,74.7,62.6,29.98,SSW,200,4.0,12.0,66,0.00,,CLR,0.00,VWS V13.01,2013-04-18 23:09:00,
2013-04-18 19:14:00,74.3,62.6,29.98,SSW,199,7.0,11.0,67,0.00,,CLR,0.00,VWS V13.01,2013-04-18 23:14:00,
2013-04-18 19:19:00,74.1,62.5,29.97,SW,220,6.0,11.0,67,0.00,,CLR,0.00,VWS V13.01,2013-04-18 23:19:00,
2013-04-18 19:24:00,73.9,61.8,29.97,SW,219,6.0,15.0,66,0.00,,CLR,0.00,VWS V13.01,2013-04-18 23:24:00,
2013-04-18 19:29:00,73.6,62.0,29.97,SSE,152,5.0,11.0,67,0.00,,CLR,0.00,VWS V13.01,2013-04-18 23:29:00,
2013-04-18 19:35:00,73.5,61.9,29.97,South,180,8.0,17.0,67,0.00,,CLR,0.00,VWS V13.01,2013-04-18 23:35:00,
2013-04-18 19:40:00,73.3,61.7,29.97,SSW,197,10.0,19.0,67,0.00,,CLR,0.00,VWS V13.01,2013-04-18 23:40:00,
2013-04-18 19:45:00,73.2,61.6,29.97,South,191,3.0,11.0,67,0.00,,CLR,0.00,VWS V13.01,2013-04-18 23:45:00,
2013-04-18 19:50:00,73.0,61.8,29.97,SSW,199,9.0,15.0,68,0.00,,CLR,0.00,VWS V13.01,2013-04-18 23:50:00,
2013-04-18 19:55:00,72.9,61.3,29.97,SSE,166,3.0,15.0,67,0.00,,CLR,0.00,VWS V13.01,2013-04-18 23:55:00,
2013-04-18 20:00:00,72.9,61.3,29.97,South,172,4.0,14.0,67,0.00,,CLR,0.00,VWS V13.01,2013-04-19 00:00:00,
2013-04-18 20:05:00,72.8,61.2,29.97,SSW,195,4.0,14.0,67,0.00,,CLR,0.00,VWS V13.01,2013-04-19 00:05:00,
2013-04-18 20:11:00,72.7,61.1,29.97,SSW,205,8.0,14.0,67,0.00,,CLR,0.00,VWS V13.01,2013-04-19 00:11:00,
2013-04-18 20:16:00,72.6,61.0,29.97,SSW,203,1.0,11.0,67,0.00,,CLR,0.00,VWS V13.01,2013-04-19 00:16:00,
2013-04-18 20:21:00,72.5,60.9,29.96,SE,136,6.0,14.0,67,0.00,,CLR,0.00,VWS V13.01,2013-04-19 00:21:00,
2013-04-18 20:26:00,72.4,60.8,29.96,SSW,197,3.0,14.0,67,0.00,,CLR,0.00,VWS V13.01,2013-04-19 00:26:00,
2013-04-18 20:31:00,72.3,60.7,29.96,SSE,148,5.0,11.0,67,0.00,,CLR,0.00,VWS V13.01,2013-04-19 00:31:00,
2013-04-18 20:36:00,72.2,60.7,29.96,SSW,194,3.0,11.0,67,0.00,,CLR,0.00,VWS V13.01,2013-04-19 00:36:00,
2013-04-18 20:41:00,72.0,60.5,29.96,South,191,12.0,12.0,67,0.00,,CLR,0.00,VWS V13.01,2013-04-19 00:41:00,
2013-04-18 20:46:00,71.8,60.3,29.95,South,182,3.0,11.0,67,0.00,,CLR,0.00,VWS V13.01,2013-04-19 00:46:00,
2013-04-18 20:52:00,71.6,60.1,29.95,SSE,166,0.0,11.0,67,0.00,,CLR,0.00,VWS V13.01,2013-04-19 00:52:00,
2013-04-18 20:57:00,71.4,59.9,29.95,SSW,211,5.0,7.0,67,0.00,,CLR,0.00,VWS V13.01,2013-04-19 00:57:00,
2013-04-18 21:02:00,71.4,59.9,29.95,South,190,3.0,8.0,67,0.00,,CLR,0.00,VWS V13.01,2013-04-19 01:02:00,
2013-04-18 21:07:00,71.3,59.8,29.95,South,188,2.0,8.0,67,0.00,,CLR,0.00,VWS V13.01,2013-04-19 01:07:00,
2013-04-18 21:12:00,71.2,60.1,29.95,South,183,0.0,3.0,68,0.00,,CLR,0.00,VWS V13.01,2013-04-19 01:12:00,
2013-04-18 21:17:00,70.9,59.8,29.96,South,183,0.0,4.0,68,0.00,,CLR,0.00,VWS V13.01,2013-04-19 01:17:00,
2013-04-18 21:22:00,70.7,59.6,29.96,South,181,0.0,4.0,68,0.00,,CLR,0.00,VWS V13.01,2013-04-19 01:22:00,
2013-04-18 21:27:00,70.4,59.8,29.96,South,189,0.0,2.0,69,0.00,,CLR,0.00,VWS V13.01,2013-04-19 01:27:00,
2013-04-18 21:33:00,70.2,59.6,29.96,South,189,2.0,2.0,69,0.00,,CLR,0.00,VWS V13.01,2013-04-19 01:33:00,
2013-04-18 21:38:00,70.1,59.5,29.96,SSE,161,0.0,7.0,69,0.00,,CLR,0.00,VWS V13.01,2013-04-19 01:38:00,
2013-04-18 21:43:00,70.0,59.4,29.96,SSE,166,2.0,2.0,69,0.00,,CLR,0.00,VWS V13.01,2013-04-19 01:43:00,
2013-04-18 21:48:00,69.8,59.2,29.96,SSE,166,0.0,4.0,69,0.00,,CLR,0.00,VWS V13.01,2013-04-19 01:48:00,
2013-04-18 21:53:00,69.7,59.1,29.96,SW,218,6.0,9.0,69,0.00,,CLR,0.00,VWS V13.01,2013-04-19 01:53:00,
2013-04-18 21:58:00,69.8,59.2,29.96,SW,228,1.0,4.0,69,0.00,,CLR,0.00,VWS V13.01,2013-04-19 01:58:00,
2013-04-18 22:03:00,69.7,59.1,29.96,SW,226,2.0,9.0,69,0.00,,CLR,0.00,VWS V13.01,2013-04-19 02:03:00,
2013-04-18 22:08:00,69.7,59.1,29.96,SW,225,4.0,9.0,69,0.00,,CLR,0.00,VWS V13.01,2013-04-19 02:08:00,
2013-04-18 22:13:00,69.7,59.1,29.96,SW,225,2.0,4.0,69,0.00,,CLR,0.00,VWS V13.01,2013-04-19 02:13:00,
2013-04-18 22:19:00,69.5,58.9,29.96,SW,218,4.0,6.0,69,0.00,,CLR,0.00,VWS V13.01,2013-04-19 02:19:00,
2013-04-18 22:24:00,69.6,59.0,29.96,SW,223,4.0,7.0,69,0.00,,CLR,0.00,VWS V13.01,2013-04-19 02:24:00,
2013-04-18 22:29:00,69.4,58.8,29.95,SSW,212,3.0,4.0,69,0.00,,CLR,0.00,VWS V13.01,2013-04-19 02:29:00,
2013-04-18 22:34:00,69.1,58.9,29.96,SSW,213,2.0,5.0,70,0.00,,CLR,0.00,VWS V13.01,2013-04-19 02:34:00,
2013-04-18 22:39:00,69.1,58.9,29.95,SW,215,2.0,5.0,70,0.00,,CLR,0.00,VWS V13.01,2013-04-19 02:39:00,
2013-04-18 22:44:00,69.1,58.9,29.95,SW,215,3.0,3.0,70,0.00,,CLR,0.00,VWS V13.01,2013-04-19 02:44:00,
2013-04-18 22:49:00,69.1,58.5,29.95,SSW,212,5.0,6.0,69,0.00,,CLR,0.00,VWS V13.01,2013-04-19 02:49:00,
2013-04-18 22:54:00,69.0,58.4,29.95,SSW,198,6.0,7.0,69,0.00,,CLR,0.00,VWS V13.01,2013-04-19 02:54:00,
2013-04-18 23:00:00,68.8,58.6,29.94,SSW,197,3.0,5.0,70,0.00,,CLR,0.00,VWS V13.01,2013-04-19 03:00:00,
2013-04-18 23:05:00,68.6,58.4,29.94,SSW,197,2.0,5.0,70,0.00,,CLR,0.00,VWS V13.01,2013-04-19 03:05:00,
2013-04-18 23:10:00,68.3,58.5,29.94,SSW,196,3.0,5.0,71,0.00,,CLR,0.00,VWS V13.01,2013-04-19 03:10:00,
2013-04-18 23:15:00,68.1,58.3,29.94,SSW,196,3.0,3.0,71,0.00,,CLR,0.00,VWS V13.01,2013-04-19 03:15:00,
2013-04-18 23:20:00,67.8,58.1,29.94,SSW,197,2.0,4.0,71,0.00,,CLR,0.00,VWS V13.01,2013-04-19 03:20:00,
2013-04-18 23:25:00,67.4,58.1,29.93,SSW,199,4.0,5.0,72,0.00,,CLR,0.00,VWS V13.01,2013-04-19 03:25:00,
2013-04-18 23:31:00,67.0,58.1,29.93,SSW,201,3.0,6.0,73,0.00,,CLR,0.00,VWS V13.01,2013-04-19 03:31:00,
2013-04-18 23:36:00,66.8,57.9,29.93,SSW,202,2.0,6.0,73,0.00,,CLR,0.00,VWS V13.01,2013-04-19 03:36:00,
2013-04-18 23:41:00,66.7,57.8,29.93,SSW,201,0.0,6.0,73,0.00,,CLR,0.00,VWS V13.01,2013-04-19 03:41:00,
2013-04-18 23:46:00,66.4,57.5,29.92,SSW,201,2.0,4.0,73,0.00,,CLR,0.00,VWS V13.01,2013-04-19 03:46:00,
2013-04-18 23:51:00,65.9,57.4,29.92,South,188,3.0,5.0,74,0.00,,CLR,0.00,VWS V13.01,2013-04-19 03:51:00,
2013-04-18 23:56:00,65.7,57.6,29.92,South,184,3.0,6.0,75,0.00,,CLR,0.00,VWS V13.01,2013-04-19 03:56:00,